Weather History for Nome, AK

Change the Weather History Date:

Tuesday, May 6, 2014

  Actual Average Record
Temperature  
Mean Temperature 33 °F 32 °F  
Max Temperature 38 °F 38 °F 59 °F (1991)
Min Temperature 27 °F 26 °F 1 °F (1952)
Degree Days  
Heating Degree Days 32 33  
Month to date heating degree days 196 204  
Since 1 July heating degree days 11062 12517  
Cooling Degree Days 0    
Month to date cooling degree days 0  
Year to date cooling degree days 0  
Moisture  
Dew Point 27 °F    
Average Humidity 0    
Maximum Humidity 0    
Minimum Humidity 0    
Precipitation  
Precipitation 0.08 in 0.03 in 0.41 in (2004)
Month to date precipitation 0.14 0.17  
Year to date precipitation 3.29 3.45  
Snow  
Snow 1.10 in 0.10 in 3.60 in (1985)
Month to date snowfall 1.6 0.8  
Since 1 July snowfall 71.3 73.9  
Snow Depth 1.00 in    
Sea Level Pressure  
Sea Level Pressure 29.74 in    
Wind  
Wind Speed 10 mph (WSW)    
Max Wind Speed 16 mph    
Max Gust Speed 19 mph    
Visibility 8 miles    
Events Snow    
T = Trace of Precipitation, MM = Missing Value Source: NWS Daily Summary

Daily Weather History Graph

Daily Weather History Graph

Search for Another Location

Airport:

Trip Planner

Search our weather history database for the weather conditions in past years. The results will help you decide how hot, cold, wet, or windy it might be!

Date:

Astronomy

May. 06, 2014 Rise Set
Actual Time 6:12 AM AKDT 11:46 PM AKDT
Civil Twilight 4:52 AM AKDT 1:09 AM AKDT
Nautical Twilight Sun does not rise Sun does not rise
Astronomical Twilight Sun does not rise Sun does not rise
Moon 1:17 PM AKDT (5/6) 4:39 AM AKDT (5/6)
Length of Visible Light 20h 16m
Length of Day
17h 33m
Waxing Crescent, 47% of the Moon is Illuminated
May 6
Waxing Crescent
May 6
First Quarter
May 14
Full
May 21
Last Quarter
May 28
New

Hourly Weather History & Observations

Time (AKDT) Temp. Windchill Dew Point Humidity Pressure Visibility Wind Dir Wind Speed Gust Speed Precip Events Conditions
3:44 AM 30.0 °F 22.4 °F 30.0 °F 100% 29.74 in 1.8 mi South 8.1 mph - 0.02 in Snow Light Snow
3:53 AM 30.0 °F 21.7 °F 30.0 °F 100% 29.74 in 2.0 mi South 9.2 mph - 0.02 in Snow Light Snow
4:25 AM 30.0 °F 22.4 °F 30.0 °F 100% 29.73 in 2.0 mi South 8.1 mph - 0.01 in Snow Light Snow
4:53 AM 30.0 °F 21.7 °F 30.0 °F 100% 29.73 in 4.0 mi South 9.2 mph - 0.01 in Snow Light Snow
5:14 AM 30.0 °F 22.4 °F 30.0 °F 100% 29.73 in 3.0 mi SSW 8.1 mph - 0.00 in Snow Light Snow
5:53 AM 30.0 °F 23.2 °F 30.0 °F 100% 29.72 in 3.0 mi SSW 6.9 mph - 0.01 in Snow Light Snow
6:17 AM 30.0 °F 23.2 °F 28.0 °F 92% 29.72 in 9.0 mi SSW 6.9 mph - 0.00 in   Overcast
6:53 AM 30.0 °F 23.2 °F 28.9 °F 96% 29.72 in 1.0 mi SW 6.9 mph - 0.00 in Snow Light Snow
7:29 AM 28.9 °F 20.4 °F 28.9 °F 100% 29.72 in 4.0 mi WSW 9.2 mph - 0.00 in Snow Light Snow
7:53 AM 28.9 °F 20.4 °F 28.9 °F 100% 29.72 in 9.0 mi West 9.2 mph - 0.01 in   Overcast
8:53 AM 28.9 °F 21.1 °F 28.0 °F 96% 29.71 in 10.0 mi WSW 8.1 mph - N/A   Overcast
9:53 AM 28.9 °F 21.1 °F 28.0 °F 96% 29.72 in 10.0 mi West 8.1 mph - N/A   Overcast
10:53 AM 30.0 °F 23.2 °F 26.1 °F 85% 29.72 in 10.0 mi WSW 6.9 mph - N/A   Overcast
11:53 AM 30.0 °F 21.1 °F 27.0 °F 88% 29.73 in 10.0 mi West 10.4 mph - N/A   Overcast
12:53 PM 30.0 °F 20.5 °F 26.1 °F 85% 29.73 in 10.0 mi WSW 11.5 mph - N/A   Overcast
1:53 PM 30.9 °F 21.7 °F 26.1 °F 82% 29.74 in 10.0 mi West 11.5 mph - N/A   Overcast
2:53 PM 30.9 °F 22.2 °F 26.1 °F 82% 29.74 in 10.0 mi West 10.4 mph - N/A   Overcast
3:53 PM 30.9 °F 21.7 °F 27.0 °F 85% 29.75 in 10.0 mi WSW 11.5 mph - N/A   Overcast
4:30 PM 32.0 °F 22.5 °F 28.0 °F 85% 29.75 in 10.0 mi West 12.7 mph - N/A   Overcast
4:53 PM 32.0 °F 21.6 °F 28.0 °F 85% 29.75 in 10.0 mi West 15.0 mph - N/A   Overcast
5:05 PM 30.9 °F 20.7 °F 28.0 °F 89% 29.76 in 10.0 mi West 13.8 mph - N/A   Overcast
5:13 PM 32.0 °F 21.6 °F 28.0 °F 85% 29.75 in 5.0 mi WSW 15.0 mph - 0.00 in Snow Light Snow
5:53 PM 32.0 °F 22.5 °F 28.9 °F 88% 29.75 in 7.0 mi WSW 12.7 mph - 0.00 in Snow Light Snow
6:53 PM 36.0 °F 28.0 °F 26.1 °F 67% 29.75 in 10.0 mi NW 11.5 mph - 0.00 in   Overcast
7:53 PM 36.0 °F 29.0 °F 25.0 °F 64% 29.76 in 10.0 mi NNW 9.2 mph - N/A   Mostly Cloudy
8:53 PM 37.0 °F 28.9 °F 25.0 °F 62% 29.76 in 10.0 mi NW 12.7 mph - N/A   Mostly Cloudy
9:53 PM 35.1 °F 27.4 °F 24.1 °F 64% 29.77 in 10.0 mi NW 10.4 mph - N/A   Scattered Clouds
10:53 PM 32.0 °F 25.6 °F 24.1 °F 73% 29.78 in 10.0 mi NW 6.9 mph - N/A   Scattered Clouds
11:53 PM 28.9 °F 23.9 °F 23.0 °F 78% 29.80 in 10.0 mi NNW 4.6 mph - N/A   Scattered Clouds